Preview of NWS' New Version of Forecast
This preview is not operational and should not be used for support decisions.
Latest weather observations around

Birmingham, Birmingham International Airport (KBHM)

Using English Units (Switch to International System of Units)
Date/ Time (CDT) Wind (mph) Vis. (mi) Weather Sky Cond. Temp (°F) Rel. Humidity Wind Chill (°F) Heat Index (°F) Pressure Precip. (in)
Air Dwpt 6 hour Altimeter (inHg) Sea level (inHg) 1 hr 3 hr 6 hr
Max Min
Jun 27 00:53 N 3 10 Partly Cloudy SCT120 73 67     81%   74 30.21 30.19     0
Jun 26 23:53 NE 3 10 Partly Cloudy SCT120 74 66     76%   75 30.22 30.19      
Jun 26 22:53 N 5 10 Partly Cloudy SCT120 73 68     84%   74 30.22 30.19 0    
Jun 26 21:53 NNW 8 10 Mostly Cloudy SCT050 BKN250 74 67     79%   75 30.22 30.19   0  
Jun 26 20:53 S 3 10 Mostly Cloudy FEW050 BKN250 75 66     74%   76 30.2 30.18      
Jun 26 19:53 S 3 10 Mostly Cloudy FEW050 FEW110 BKN250 75 66     74%   76 30.19 30.16 0    
Jun 26 18:53 7 10 Mostly Cloudy FEW100 BKN250 73 67     81%   74 30.2 30.18 0   0
Jun 26 18:45 SSE 9 10 Mostly Cloudy BKN250 73 66     79%   74 30.2   0    
Jun 26 17:53 5 5 Thunderstorms and Haze SCT055 SCT075 OVC100 76 64     67%   76   30.14 0    
Jun 26 17:41   3 Thunderstorms and Rain BKN060 BKN080 OVC095 79 64     60%   79 30.16   0    
Jun 26 16:53 WSW 13 10 Thunderstorms SCT060 BKN250 89 66     47%   92 30.15 30.12      
Jun 26 16:44 W 10 10 Clear CLR 90 67     47%   93 30.15        
Jun 26 15:53 WSW 9 10 Mostly Cloudy FEW045 BKN250 89 67     48%   92 30.17 30.14      
Jun 26 14:53 W 8 10 Mostly Cloudy FEW045 BKN250 89 68     50%   93 30.17 30.14      
Jun 26 13:53 WNW 10 10 Mostly Cloudy FEW048 FEW120 BKN250 88 67     50%   91 30.18 30.15      
Jun 26 12:53 WNW 9 10 Mostly Cloudy FEW046 SCT120 BKN250 87 68     53%   91 30.2 30.17     0
Jun 26 11:53 NNW 5 10 Mostly Cloudy FEW046 FEW110 BKN250 86 66     51%   88 30.21 30.18      
Jun 26 10:53 SE 3 10 Mostly Cloudy FEW110 SCT150 BKN250 83 67     59%   86 30.21 30.18      
Jun 26 09:53 E 3 10 Mostly Cloudy FEW110 BKN150 BKN250 80 66     62%   82 30.21 30.18   0  
Jun 26 08:53 3 10 Mostly Cloudy FEW110 BKN150 BKN200 79 66     65%   80   30.22      
Jun 26 07:53 NNW 7 10 Cloudy BKN110 OVC250 77 67     71%   78 30.23 30.2 0    
Jun 26 06:53 N 3 10 Cloudy SCT110 OVC250 75 70     84%   76 30.22 30.2      
Jun 26 05:53 W 3 10 Mostly Cloudy BKN110 76 69     79%   77 30.21 30.19      
Jun 26 04:53 W 5 10 Mostly Cloudy BKN250 75 70     84%   76 30.2 30.18      
Jun 26 03:53 Calm 10 Mostly Cloudy BKN250 75 71     88%   76 30.16 30.14      
Jun 26 02:53 NNW 5 10 Mostly Clear FEW100 75 71     88%   76 30.16 30.13      
Jun 26 01:53 NNE 3 10 Clear CLR 76 70     82%   77 30.16 30.13      
Jun 26 00:53 SW 3 10 Mostly Clear FEW033 77 71     82%   78 30.17 30.14      
Jun 25 23:53 Calm 10 Partly Cloudy FEW050 SCT250 77 70     79%   78 30.17 30.14      
Jun 25 22:53 Calm 10 Partly Cloudy FEW050 SCT250 78 70     76%   79 30.16 30.13      
Jun 25 21:53 Calm 10 Mostly Clear FEW045 80 69     69%   83 30.15 30.12      
Jun 25 20:53 NNW 5 10 Partly Cloudy SCT045 81 69     67%   84 30.12 30.09      
Jun 25 19:53 W 7 10 Mostly Cloudy SCT048 BKN250 84 69     61%   88 30.1 30.07      
Jun 25 18:53 NW 7 10 Mostly Cloudy BKN047 86 67     53%   89 30.09 30.06      
Jun 25 17:53 N 7 10 Cloudy BKN050 BKN060 OVC250 86 69     57%   90 30.08 30.05      
Jun 25 16:53 W 6 10 Mostly Cloudy SCT045 BKN250 88 68     52%   92 30.08 30.05      
Jun 25 15:53 W 6 10 Mostly Cloudy FEW040 BKN250 88 66     48%   90 30.09 30.06      
Jun 25 14:53 W 8 10 Mostly Cloudy FEW042 BKN250 88 67     50%   91 30.1 30.07      
Jun 25 13:53   10 Mostly Cloudy FEW042 BKN250 87 68     53%   91 30.12 30.09      
Jun 25 12:53 3 10 Mostly Cloudy FEW036 BKN250 86 69     57%   90 30.11 30.09      
Jun 25 11:53 W 5 10 Mostly Cloudy FEW037 BKN250 84 69     61%   88 30.13 30.1      
Jun 25 10:53 NW 9 10 Mostly Cloudy SCT029 BKN250 82 68     63%   85 30.13 30.1      
Jun 25 09:53 WNW 3 10 Mostly Cloudy SCT025 SCT150 BKN250 80 69     69%   83 30.12 30.09      
Jun 25 08:53 NNW 7 10 Mostly Cloudy FEW150 BKN250 79 68     69%   80 30.12 30.09      
Jun 25 07:53 NW 5 10 Mostly Cloudy FEW034 FEW150 BKN250 76 68     76%   77 30.11 30.08      
Jun 25 06:53 Calm 10 Mostly Cloudy SCT150 BKN250 73 68     84%   74 30.09 30.06      
Jun 25 05:53 Calm 10 Partly Cloudy SCT250 69 67     93%     30.08 30.05      
Jun 25 04:53 Calm 10 Mostly Clear FEW250 69 66     90%     30.06 30.03      
Jun 25 03:53 Calm 10 Mostly Clear FEW250 70 67     90%     30.05 30.02      
Jun 25 02:53 Calm 10 Mostly Clear FEW250 70 67     90%     30.02 30      
Jun 25 01:53 SW 5 10 Clear CLR 75 66     74%   76   29.98      
Jun 25 00:53 WSW 6 10 Partly Cloudy SCT250 76 66     71%   77 30 29.97      
Jun 24 23:53 WSW 6 10 Partly Cloudy SCT250 76 66     71%   77 30 29.97      
Jun 24 22:53 WSW 6 10 Partly Cloudy SCT250 79 66     65%   80 30 29.97      
Jun 24 21:53 WSW 8 10 Partly Cloudy SCT250 79 66     65%   80 29.98 29.96      
Jun 24 20:53 WSW 10 10 Mostly Cloudy FEW120 BKN250 81 65     58%   83 29.98 29.95      
Jun 24 19:53 WSW 10 10 Clear   83 64     53%   84   29.94      
Jun 24 18:53 WSW 15 10 Mostly Cloudy FEW120 BKN250 84 63     49%   85   29.92      
Jun 24 17:53   10 Mostly Cloudy FEW120 BKN250 86 63     46%   87   29.9      
Jun 24 16:53   10 Mostly Cloudy FEW100 BKN250 88        %     29.93 29.9      
Jun 24 15:53   10 Mostly Cloudy FEW100 BKN250 88 69     54%   92   29.9      
Jun 24 15:43   10 Mostly Cloudy BKN250 88 70     55%   93          
Jun 24 15:27   10 Mostly Cloudy BKN250 87 70     57%   92          
Jun 24 14:53   10 Thunderstorms SCT035 BKN250 86 70     59%   91   29.91      
Jun 24 14:44   10 Thunderstorms SCT035 BKN250 87 70     57%   92 29.93        
Jun 24 14:37   10 Mostly Cloudy FEW037 BKN250 88 71     57%   94 29.93        
Jun 24 13:53   10 Mostly Cloudy FEW035 BKN150 BKN250 88 71     57%   94 29.93 29.9      
Jun 24 12:53   10 Cloudy SCT030 BKN150 OVC250 86 73     65%   93   29.89      
Jun 24 11:53   10 Cloudy SCT029 BKN150 OVC250 85 73     68%   92 29.93 29.9      
Jun 24 10:53   9 Cloudy FEW029 SCT040 BKN050 OVC150 84 72     67%   90 29.94 29.91      
Jun 24 09:53   9 Cloudy SCT025 BKN037 OVC047 83 72     70%   88 29.94 29.92      
Jun 24 09:44 S 11 9 Mostly Cloudy SCT025 BKN034 BKN042 83 73     72%   89 29.95        
Jun 24 08:53   8 Mostly Cloudy BKN023 82 73     74%   87 29.97 29.94      
Jun 24 07:53 SSW 11 8 Cloudy BKN019 BKN025 OVC032 81 73     77%   86 29.97 29.94      
Jun 24 07:24   8 Cloudy SCT016 BKN029 OVC055 80 73     79%   84 29.98        
Jun 24 06:53   8 Mostly Cloudy SCT016 SCT024 BKN034 BKN250 78 73     85%   80 29.97 29.94      
Jun 24 05:53   7 Cloudy OVC015 78 73     85%   80   29.92      
Jun 24 05:44 SSW 9 8 Cloudy OVC015 78 73     85%   80          
Jun 24 04:53 S 11 9 Cloudy OVC013 78 73     85%   80 29.93 29.9      
Jun 24 04:06 SSW 10 9 Mostly Cloudy BKN013 78 73     85%   80 29.94        
Jun 24 03:53 S 10 9 Partly Cloudy SCT014 78 73     85%   80 29.94 29.91      
Jun 24 02:53 SSW 10 10 Partly Cloudy FEW015 SCT250 78 72     82%   79 29.95 29.91      
Jun 24 01:53 S 9 10 Mostly Clear FEW250 80 71     74%   84 29.97 29.93      
Jun 24 00:53 S 8 10 Clear CLR 81 70     69%   84 29.98 29.95      
May 13 22:53 Calm 10 Clear CLR 73 64     73%   73 30.09 30.06      
May 13 16:53 NNW 7 10 Mostly Clear FEW065 91 58     33%   90 30.06 30.03      
May 13 13:53 6 10 Mostly Clear FEW065 89 60     38%   89 30.12 30.1      
May 12 16:53 S 7 10 Mostly Clear FEW250 89 53     29%   87 30.1 30.08      
May 12 08:53 Calm 10 Clear CLR 78 58     50%   78 30.2 30.17      
May 12 03:53 Calm 10 Clear CLR 64 59     84%     30.13 30.1      
May 11 20:53 SSE 3 10 Clear CLR 78 58     50%   78 30.11 30.08      
Jun 12 03:53 SSE 5 10 Mostly Clear FEW040 74 71     91%   75 30.15 30.13      
Jun 11 23:53 SSE 5 10 Mostly Clear FEW050 79 70     74%   82 30.15 30.12      
Jun 11 07:53 SE 9 10 Partly Cloudy SCT065 SCT250 75 66     74%   76 30.17 30.14      
Jun 10 13:53 ESE 9 10 Mostly Cloudy SCT060 BKN075 86 58     39%   85 30.09 30.06      
Jun 10 11:53 3 10 Partly Cloudy SCT070 82        %     30.11 30.09      
Jun 08 22:53 Calm 10 Clear CLR 68 59     73%     29.95 29.93      
Jun 08 20:53 N 7 10 Mostly Clear FEW250 70 58     66%     29.91 29.89      
Jun 07 18:53   10 Mostly Clear FEW065 FEW250 79 54     42%   79 29.87 29.85      
Jun 06 03:11 NE 5 10 Mostly Cloudy FEW007 FEW022 BKN028 71 70     96%   72 29.81        
Jun 06 02:53 NNE 5 10 Partly Cloudy SCT120 71 70     96%   72 29.81 29.78      
Jun 05 19:53 Calm 10 Light Rain FEW020 SCT120 OVC250 72 70     93%   73 29.82 29.8 0    
Jun 05 14:53 Calm 10 Cloudy BKN065 BKN100 OVC250 75 70     84%   76 29.84 29.82 0